Wind_Speed
10 10 13 10 11 6 8 9 11 12 16 11 13 12 11 7 9 15 21 21 20 21 22 23 25 25 25 25 25 27 28 29 29 34 41 45 34 29 40 39 37 35 31
8 13 13 16 9 8 8 12 14 15 17 15 13 15 16 14 16 13 22 22 22 22 21 24 25 24 23 24 27 26 27 25 19 19 24 27 19 31 48 40 39 37 34
10 8 11 9 12 15 17 17 15 16 12 21 18 21 16 14 16 15 13 18 21 20 23 25 27 26 25 24 24 27 24 24 21 21 22 13 13 19 42 40 40 40 38
5 7 14 7 10 9 14 14 15 14 13 14 16 17 11 13 15 16 14 12 9 24 23 24 26 26 26 23 22 24 24 24 22 18 14 8 7 12 32 42 36 40 41
8 11 8 11 14 13 14 15 15 16 11 17 12 20 20 16 11 13 14 20 17 22 23 24 25 24 22 22 22 22 22 20 20 19 14 13 11 9 13 35 51 45 44
9 12 10 10 12 9 13 16 17 19 20 17 14 16 18 20 17 18 19 20 19 19 21 22 24 25 23 20 24 24 22 20 19 18 18 14 12 11 11 20 45 54 53
6 8 6 12 13 13 13 16 17 17 17 18 15 7 18 13 17 17 17 18 18 18 18 18 18 21 27 26 19 23 23 21 19 16 19 17 16 14 15 21 25 38 58
5 8 10 12 14 15 16 15 16 20 16 18 15 10 3 18 22 14 17 18 17 18 18 17 17 17 19 26 24 21 21 18 16 14 16 17 14 15 18 22 22 34 56
5 7 9 11 12 13 14 14 19 21 19 17 16 11 8 6 12 21 20 17 19 19 21 22 19 16 16 23 26 23 21 17 14 11 14 13 11 12 11 20 23 30 52
4 5 7 10 11 14 15 15 19 20 18 16 13 14 10 10 12 11 19 24 23 21 21 20 20 23 21 24 24 22 20 17 16 11 12 12 12 9 9 19 18 36 40
4 5 7 9 11 13 15 16 18 19 18 17 15 14 14 16 19 18 15 14 22 27 27 23 21 20 22 23 26 22 20 18 16 10 10 11 14 8 6 15 13 30 39
7 4 7 8 9 13 15 17 17 18 17 17 16 14 13 14 15 17 18 17 16 14 26 23 22 23 20 22 22 22 22 20 16 10 5 9 9 5 3 13 16 21 25
5 6 7 9 10 11 14 18 18 18 17 18 18 16 16 15 16 17 18 18 18 13 27 30 32 27 18 25 21 21 21 20 16 11 5 4 6 8 2 5 8 26 41
11 7 7 10 12 11 14 17 19 20 18 18 20 19 18 16 17 18 19 20 19 12 13 21 27 30 25 24 21 18 18 19 18 11 5 3 7 8 8 4 2 29 32
13 13 8 9 12 13 14 17 20 22 20 18 19 21 20 19 19 19 20 21 22 21 13 23 26 28 27 24 20 16 14 18 17 11 2 3 7 11 13 9 13 17 31
14 15 12 10 11 14 16 15 20 21 21 20 20 21 21 21 21 20 21 22 23 23 20 21 26 25 22 22 17 15 15 16 16 11 2 4 8 13 16 13 13 16 28
17 17 16 12 11 13 15 15 18 21 23 22 20 21 22 22 22 21 22 22 24 24 23 22 26 27 16 12 15 15 13 15 14 13 3 5 9 13 18 18 13 19 16
18 19 19 16 13 13 16 16 16 20 22 22 22 22 23 23 23 23 23 23 25 26 28 27 24 22 16 8 8 12 12 14 12 10 2 4 9 13 18 20 19 17 23
18 20 21 20 17 13 16 16 15 19 21 24 24 22 23 24 23 24 23 25 27 29 31 27 24 19 16 9 6 11 12 13 10 6 4 2 8 13 15 21 24 20 21
20 20 21 22 21 17 15 15 17 18 20 22 24 24 23 23 24 25 23 24 28 31 33 28 21 17 17 14 9 7 8 10 4 3 3 2 9 12 16 18 22 26 25
22 22 22 22 21 20 18 15 18 18 19 21 23 25 23 23 24 25 25 25 28 31 30 24 21 18 17 15 9 8 8 8 6 2 1 3 10 13 12 19 21 22 27
25 24 23 22 22 19 21 16 18 19 18 19 21 24 24 23 23 25 24 25 28 31 29 24 23 21 17 15 10 8 8 7 3 1 1 4 10 11 13 14 22 24 24
24 27 25 24 22 21 20 18 19 18 18 18 19 21 24 22 22 24 24 24 27 30 27 24 26 22 18 14 9 8 4 6 1 2 4 6 6 8 14 13 19 25 25
22 27 27 26 23 22 21 18 20 20 18 18 18 20 23 22 22 23 24 24 26 30 26 25 24 23 22 17 10 8 6 6 5 1 7 7 8 11 11 15 19 24 22
26 25 28 28 26 24 22 19 23 22 18 18 17 19 21 20 20 22 22 22 23 26 24 23 25 24 22 19 12 10 11 9 4 5 6 9 11 11 12 14 20 20 22
26 24 28 30 28 25 22 21 24 24 19 18 17 19 19 19 19 19 21 19 21 25 22 19 22 25 26 19 9 9 10 10 9 9 8 10 14 12 14 15 22 18 20
Wind_Direction
44 45 54 44 41 25 16 14 12 11 38 347 359 1 4 310 323 310 311 314 310 303 299 296 293 294 293 290 286 282 284 294 280 289 285 293 231 237 220 221 221 217 213
42 50 31 39 17 32 17 24 8 20 21 353 349 348 348 330 328 323 309 308 309 309 309 307 303 302 294 292 291 291 288 295 295 295 294 305 270 247 221 218 219 215 214
41 44 50 18 18 25 19 15 18 360 12 348 351 344 343 332 317 310 311 310 311 317 321 317 312 311 306 300 292 293 291 292 290 292 297 311 283 239 225 208 216 213 215
48 54 36 352 30 38 2 18 5 5 358 354 348 338 330 333 335 341 333 329 320 320 321 318 314 312 308 302 294 286 287 285 286 284 293 291 263 232 230 208 215 212 215
46 49 17 16 26 37 353 1 8 4 7 341 25 331 354 351 345 337 331 329 331 320 321 319 316 312 311 311 308 301 296 292 284 278 268 265 259 230 217 228 208 214 214
46 40 20 18 20 7 350 1 6 5 357 358 13 310 339 345 342 338 332 327 328 318 315 317 316 315 311 316 315 312 307 300 289 268 263 262 265 254 234 215 212 220 214
59 37 33 11 2 9 8 8 1 358 5 2 1 335 343 359 340 324 328 326 326 318 315 311 310 312 318 324 321 313 308 303 295 280 263 260 257 261 266 272 253 231 214
51 36 27 24 16 10 354 3 6 5 4 2 8 11 342 323 324 332 330 332 337 329 317 318 317 317 317 315 321 321 315 302 291 276 261 256 261 268 277 283 274 218 203
46 28 28 23 12 14 357 7 8 6 4 4 5 3 0 256 302 323 347 346 340 330 323 328 329 328 330 318 330 333 329 316 305 286 257 254 249 258 282 295 262 215 204
20 8 18 19 10 7 6 5 6 3 6 5 360 354 359 347 345 348 321 342 343 337 337 333 326 333 336 325 332 335 333 329 319 306 259 250 245 256 254 283 242 204 197
326 340 3 11 10 9 10 9 5 359 7 8 8 4 356 356 354 350 347 315 329 324 328 338 333 328 325 322 328 333 332 332 324 315 281 245 250 256 273 277 218 207 225
309 326 346 360 6 8 11 10 5 357 5 8 10 6 1 358 353 347 345 344 318 316 321 338 341 333 325 326 326 327 328 333 333 322 286 255 244 234 274 274 213 199 180
298 337 335 341 357 4 11 7 5 353 4 6 3 3 3 358 354 354 350 348 340 323 322 330 328 332 324 318 329 322 326 328 338 329 304 258 229 226 167 280 142 174 178
259 288 314 333 342 358 4 3 1 355 354 3 1 1 360 357 356 357 354 352 348 348 312 308 310 323 322 318 324 320 325 331 332 338 304 223 194 204 140 130 69 179 161
251 273 294 317 332 347 356 358 360 359 354 358 0 1 356 356 355 356 356 355 348 350 350 310 316 328 323 325 325 329 329 327 329 343 322 200 180 185 159 142 145 136 169
243 266 283 300 322 340 343 349 357 356 351 351 358 358 354 354 353 357 357 357 349 350 349 315 316 325 321 326 339 332 335 340 330 336 38 163 165 179 178 167 181 133 141
248 257 273 284 306 327 338 341 349 352 353 348 352 354 351 353 352 355 359 356 350 350 347 333 325 332 334 336 332 322 328 338 332 332 14 145 156 172 179 179 158 160 148
248 255 267 279 290 309 323 339 340 348 351 346 348 349 349 353 352 354 358 357 352 352 350 346 342 337 347 351 319 306 314 322 321 323 356 144 157 159 178 180 175 162 152
252 254 261 272 282 295 309 325 333 346 345 347 345 344 347 351 350 352 357 357 352 354 357 353 342 342 350 5 335 301 314 314 316 310 328 154 166 162 168 180 180 176 165
255 256 260 266 273 284 295 311 329 340 343 342 342 342 343 348 350 350 357 0 354 358 357 356 354 353 359 3 6 331 336 351 318 11 225 171 162 170 170 172 182 185 181
259 258 260 264 271 277 286 303 316 330 337 339 339 339 339 346 350 347 355 1 355 2 1 2 359 5 4 1 1 357 354 349 5 44 149 165 173 168 171 177 176 181 188
258 259 259 263 269 275 279 295 307 319 329 336 335 336 338 343 350 347 353 2 358 4 5 8 8 10 4 8 7 346 0 348 355 62 199 132 161 172 170 178 178 176 180
260 257 259 260 266 270 274 286 295 306 318 330 332 330 338 341 348 347 352 3 0 7 8 11 16 19 14 3 359 14 17 15 26 17 153 141 146 158 162 169 178 177 173
276 259 256 259 261 266 271 278 286 296 310 320 327 321 330 342 346 346 350 3 2 8 13 15 25 28 30 25 38 45 38 15 359 139 170 167 148 156 141 160 161 168 173
273 262 254 255 258 262 270 275 281 289 300 310 318 316 322 337 342 344 347 3 3 11 14 18 24 26 29 33 39 49 47 21 40 106 151 166 158 158 147 153 161 163 171
263 259 252 254 257 261 266 272 277 282 291 298 306 311 317 331 338 343 343 360 1 9 18 22 26 27 26 27 30 39 65 44 76 69 110 160 176 170 159 150 166 154 172
Height
3204 3203 3203 3199 3200 3199 3198 3196 3193 3190 3190 3191 3187 3185 3184 3183 3180 3176 3173 3171 3168 3165 3163 3161 3159 3159 3158 3157 3155 3153 3152 3150 3151 3147 3143 3139 3142 3144 3154 3162 3168 3173 3177
3205 3204 3203 3203 3202 3200 3198 3195 3193 3191 3190 3191 3187 3185 3182 3180 3178 3176 3170 3167 3163 3161 3159 3156 3153 3152 3152 3151 3148 3147 3145 3143 3145 3143 3141 3133 3129 3137 3144 3152 3160 3166 3171
3206 3206 3206 3206 3203 3201 3198 3198 3195 3193 3194 3190 3187 3183 3180 3178 3175 3173 3169 3163 3159 3158 3155 3152 3149 3147 3146 3145 3144 3140 3139 3138 3139 3138 3135 3128 3128 3127 3135 3141 3152 3158 3165
3208 3206 3208 3207 3205 3203 3201 3200 3196 3193 3193 3190 3187 3185 3180 3176 3173 3169 3167 3164 3162 3155 3154 3150 3146 3143 3140 3139 3138 3135 3133 3132 3132 3131 3128 3127 3128 3127 3128 3135 3144 3152 3157
3208 3207 3211 3206 3204 3205 3202 3199 3196 3194 3192 3189 3188 3182 3178 3175 3174 3170 3168 3162 3160 3154 3151 3148 3144 3140 3137 3133 3131 3129 3127 3125 3124 3124 3123 3123 3124 3125 3128 3131 3137 3143 3150
3210 3209 3212 3208 3205 3207 3203 3198 3196 3194 3191 3188 3186 3187 3181 3176 3172 3168 3165 3162 3159 3156 3151 3146 3141 3136 3134 3132 3127 3124 3122 3121 3119 3118 3118 3118 3119 3122 3124 3130 3133 3136 3141
3212 3211 3211 3210 3207 3205 3203 3199 3197 3195 3192 3189 3186 3186 3179 3177 3174 3171 3168 3164 3159 3155 3151 3146 3142 3136 3129 3128 3126 3120 3117 3115 3113 3112 3113 3113 3116 3117 3118 3118 3118 3122 3129
3213 3212 3211 3210 3209 3206 3203 3202 3199 3195 3192 3188 3185 3183 3184 3181 3175 3172 3168 3163 3159 3154 3148 3144 3140 3137 3133 3124 3119 3117 3113 3110 3109 3109 3111 3110 3111 3111 3112 3110 3108 3109 3120
3214 3213 3213 3212 3210 3207 3205 3202 3199 3195 3192 3188 3185 3184 3181 3180 3177 3168 3164 3161 3157 3151 3145 3141 3137 3134 3130 3122 3116 3112 3110 3107 3106 3105 3105 3108 3107 3106 3105 3105 3103 3104 3112
3214 3214 3214 3213 3210 3207 3205 3202 3199 3196 3193 3190 3187 3183 3181 3178 3174 3170 3164 3157 3154 3148 3143 3138 3133 3128 3125 3119 3115 3111 3107 3105 3103 3103 3102 3103 3102 3101 3101 3101 3095 3099 3105
3215 3215 3214 3213 3211 3208 3205 3203 3200 3197 3194 3191 3187 3183 3179 3175 3171 3168 3164 3161 3154 3145 3140 3136 3132 3128 3123 3118 3112 3109 3105 3103 3099 3100 3098 3098 3098 3098 3098 3095 3093 3097 3103
3215 3216 3215 3214 3213 3209 3206 3203 3201 3198 3194 3190 3186 3182 3178 3175 3172 3168 3164 3159 3154 3149 3140 3135 3131 3127 3122 3117 3113 3108 3103 3100 3099 3096 3098 3097 3097 3096 3095 3093 3089 3094 3097
3216 3215 3215 3214 3213 3211 3208 3204 3201 3198 3194 3190 3185 3182 3178 3174 3170 3167 3163 3158 3153 3149 3141 3135 3130 3126 3122 3113 3111 3106 3101 3098 3097 3096 3094 3095 3095 3096 3097 3097 3094 3098 3104
3215 3214 3214 3213 3212 3210 3208 3205 3202 3198 3194 3190 3186 3182 3178 3173 3170 3166 3161 3156 3151 3148 3146 3139 3131 3124 3118 3114 3110 3106 3101 3097 3094 3095 3094 3095 3096 3098 3099 3099 3098 3098 3106
3213 3212 3213 3212 3211 3210 3208 3204 3202 3198 3194 3190 3186 3182 3178 3173 3169 3165 3160 3155 3149 3145 3142 3134 3128 3121 3114 3111 3106 3104 3101 3096 3094 3093 3094 3095 3097 3099 3102 3102 3102 3101 3107
3213 3211 3211 3210 3210 3209 3207 3205 3202 3199 3194 3190 3186 3182 3178 3173 3169 3164 3160 3155 3149 3144 3140 3133 3126 3121 3114 3109 3105 3102 3101 3097 3094 3093 3094 3095 3097 3100 3102 3105 3106 3108 3109
3210 3210 3209 3209 3209 3208 3206 3204 3202 3199 3195 3190 3186 3182 3178 3173 3169 3163 3159 3154 3148 3142 3137 3131 3122 3115 3112 3109 3105 3102 3100 3098 3095 3093 3094 3096 3097 3101 3104 3108 3113 3117 3120
3207 3207 3207 3207 3207 3207 3205 3204 3202 3199 3195 3190 3186 3182 3178 3174 3169 3163 3158 3153 3147 3141 3135 3127 3119 3113 3109 3108 3106 3102 3099 3098 3096 3094 3095 3096 3098 3102 3106 3111 3116 3121 3126
3204 3204 3205 3205 3205 3205 3203 3202 3201 3198 3195 3190 3186 3182 3179 3174 3169 3163 3158 3153 3146 3140 3133 3125 3118 3113 3108 3107 3105 3102 3099 3097 3096 3095 3096 3098 3100 3103 3107 3112 3118 3123 3129
3201 3202 3201 3202 3203 3202 3201 3201 3199 3197 3194 3190 3187 3182 3179 3175 3169 3164 3158 3153 3146 3139 3132 3124 3118 3112 3108 3105 3103 3100 3099 3096 3096 3095 3097 3098 3102 3104 3109 3113 3118 3125 3132
3197 3198 3198 3199 3200 3200 3199 3199 3198 3196 3193 3190 3186 3182 3179 3175 3170 3163 3158 3153 3147 3140 3133 3126 3119 3113 3108 3104 3102 3100 3099 3097 3096 3096 3097 3098 3100 3105 3108 3114 3119 3124 3131
3193 3194 3195 3196 3197 3198 3196 3196 3196 3194 3192 3190 3186 3182 3179 3174 3170 3164 3158 3153 3147 3141 3133 3126 3120 3114 3109 3106 3104 3102 3100 3098 3098 3097 3098 3099 3102 3105 3109 3112 3118 3125 3130
3188 3190 3192 3192 3193 3195 3194 3194 3193 3192 3191 3189 3185 3181 3179 3175 3171 3165 3159 3154 3148 3142 3135 3129 3121 3115 3110 3106 3104 3101 3100 3099 3098 3098 3099 3101 3103 3105 3108 3112 3116 3122 3129
3185 3185 3187 3188 3189 3190 3191 3192 3190 3189 3189 3188 3185 3181 3178 3175 3171 3166 3160 3154 3148 3142 3136 3131 3124 3118 3112 3107 3104 3102 3102 3101 3099 3098 3100 3102 3104 3106 3108 3110 3115 3122 3128
3180 3179 3181 3183 3185 3186 3187 3188 3187 3186 3187 3185 3184 3180 3178 3175 3171 3167 3161 3156 3151 3145 3139 3134 3127 3122 3115 3110 3108 3105 3103 3102 3100 3099 3100 3103 3105 3107 3110 3113 3117 3121 3126
3173 3174 3175 3177 3179 3182 3184 3184 3183 3182 3184 3183 3181 3179 3177 3175 3171 3167 3163 3159 3153 3147 3143 3139 3132 3126 3118 3113 3110 3108 3104 3103 3102 3102 3101 3102 3104 3108 3109 3113 3117 3122 3126